GFSFLT1_925_temp_000.txt.gz
Temp
39 37 37 35 34 33 31 31 30 29 28 27 26 26 25 25 25 25 26 26 26 26 26 25 24 22 22 22 22 21 21 21 21
39 38 37 36 35 33 32 31 30 29 28 27 27 27 25 25 25 25 26 26 25 25 25 25 23 22 22 22 22 21 21 21 21
39 38 37 37 36 34 33 32 31 29 29 28 27 27 26 26 25 25 25 26 25 25 24 23 23 22 22 22 21 21 20 22 21
40 39 37 37 37 36 34 33 32 31 29 28 28 28 27 26 26 26 25 25 23 23 22 22 22 22 22 22 21 21 20 21 22
42 40 38 37 38 36 35 33 33 32 31 30 29 28 27 27 27 26 25 24 23 21 21 21 21 21 20 21 21 21 21 21 22
40 38 37 37 37 36 35 34 33 33 32 31 30 29 28 27 27 26 25 23 20 22 21 23 22 23 22 20 21 21 21 21 21
39 36 36 35 36 35 34 34 33 32 33 32 31 31 29 28 27 26 24 21 22 23 23 23 21 23 22 20 21 21 21 21 21
39 36 35 34 35 34 33 33 32 31 32 31 31 31 30 28 26 23 21 20 21 24 24 23 24 23 20 20 20 20 21 21 21
39 36 35 34 34 34 33 32 31 31 30 30 30 29 29 28 24 22 20 19 20 22 24 23 24 22 20 19 19 20 21 21 21
39 37 36 34 34 34 33 32 30 30 29 29 29 27 27 26 23 21 19 19 20 21 21 21 22 20 19 19 19 21 21 21 20
39 38 36 35 35 34 31 31 31 30 28 28 27 26 26 25 22 21 20 19 20 20 21 20 20 19 19 19 20 19 20 20 19
36 37 36 34 34 32 30 31 30 29 28 27 26 25 25 23 21 20 20 20 20 20 20 20 21 20 20 19 20 19 20 20 20
35 35 34 33 32 30 30 30 29 28 28 27 26 25 24 22 21 21 20 20 20 19 20 20 20 20 20 20 20 20 21 21 21
33 33 31 31 31 31 29 29 29 29 28 28 27 25 23 21 21 21 20 20 19 20 20 20 20 20 20 20 19 20 20 20 19
31 31 31 32 31 29 29 29 29 29 28 27 25 24 21 20 21 21 21 19 19 19 19 19 20 19 19 19 20 20 19 18 18
32 32 32 31 30 28 28 28 28 28 25 24 24 21 20 20 20 20 20 19 19 19 19 21 20 19 21 22 21 18 18 17 16
30 30 30 30 29 29 26 25 25 24 22 22 22 21 20 19 20 19 19 19 19 20 21 20 20 21 21 21 20 19 16 15 15
28 28 28 28 28 27 25 24 23 23 22 22 22 20 20 20 19 19 20 19 20 21 19 20 22 21 20 21 21 21 19 18 19
25 26 26 26 26 25 24 23 23 23 21 21 21 20 21 21 21 21 20 19 17 18 18 18 18 18 19 19 20 19 17 16 16
23 24 25 25 25 24 24 23 23 22 22 22 22 23 22 22 23 23 23 22 21 21 16 16 17 17 17 17 17 17 15 15 14

GFSFLT1_925_temp_003.txt.gz
Temp
42 40 40 38 37 36 34 33 32 31 30 28 27 27 27 27 26 27 27 27 28 27 27 27 26 24 23 23 23 22 22 22 22
42 41 40 39 38 36 34 33 32 31 30 29 28 28 27 26 26 26 28 28 27 27 27 27 25 24 23 23 23 22 22 22 22
42 42 40 40 38 37 35 34 33 31 30 29 28 28 28 27 26 26 27 27 27 27 26 25 25 24 23 23 23 22 22 22 22
43 42 41 40 39 38 36 35 33 32 31 30 29 29 29 28 27 27 26 27 26 26 26 24 24 23 23 23 23 22 21 22 23
43 42 41 41 40 39 37 36 35 33 32 31 30 30 29 28 28 27 27 26 26 25 24 24 23 22 22 23 22 22 21 22 22
42 42 42 41 41 40 39 37 35 35 33 33 32 30 30 29 28 27 27 26 26 24 24 23 23 22 22 22 22 22 22 22 22
42 42 40 40 40 40 40 38 36 35 35 34 33 32 31 29 28 28 27 26 25 23 22 22 22 22 21 21 22 22 22 22 21
41 41 40 39 39 39 38 37 36 35 35 35 34 33 31 30 28 27 27 25 23 22 22 22 22 22 21 22 22 22 22 22 22
40 41 42 39 38 38 37 37 36 35 34 35 34 32 32 31 28 27 26 24 23 21 22 22 22 21 22 21 22 23 22 22 21
40 41 42 40 38 37 37 36 35 35 33 33 33 32 31 31 28 25 23 23 22 21 21 22 23 21 21 21 21 22 21 21 21
41 41 41 41 40 38 36 35 35 34 33 32 32 30 30 29 26 23 21 21 21 21 21 22 23 21 22 22 22 21 21 21 20
41 41 42 41 39 37 35 35 34 33 32 30 30 29 28 28 25 23 21 21 21 22 22 23 22 21 22 21 21 20 20 20 19
39 39 41 40 38 37 34 34 33 32 31 30 29 28 28 27 24 22 22 21 21 22 22 22 22 22 21 21 21 20 20 20 20
37 38 38 36 36 34 33 33 32 31 30 30 29 28 27 25 23 22 22 21 21 21 21 21 21 20 21 21 20 20 20 20 19
35 36 35 34 34 33 32 32 31 30 30 29 28 27 26 24 23 22 22 21 21 20 20 21 21 21 21 21 20 19 19 19 19
33 33 33 33 32 31 31 31 30 30 29 28 27 26 24 22 22 21 22 22 21 20 21 22 22 22 22 22 21 19 19 19 19
33 33 32 32 31 30 30 30 29 28 27 26 25 22 21 21 21 21 21 22 20 20 20 21 23 23 21 21 21 19 18 17 17
31 31 31 30 29 28 27 27 26 26 25 25 22 21 21 21 21 21 21 21 20 21 21 21 23 23 21 21 22 22 21 18 18
28 28 28 28 28 27 26 26 25 25 24 24 23 22 22 22 22 22 20 20 18 19 19 19 20 21 21 21 21 21 20 20 19
24 27 28 28 27 27 26 26 25 23 23 23 22 23 22 22 24 23 22 23 23 21 17 19 19 19 19 19 19 18 19 18 17

GFSFLT1_925_temp_006.txt.gz
Temp
41 41 41 39 37 35 34 33 32 31 29 27 27 26 25 25 26 26 26 27 28 28 28 27 26 25 24 23 23 23 22 22 22
42 41 40 39 38 36 34 33 32 31 29 27 27 27 26 25 25 26 26 28 28 27 27 27 26 25 24 23 23 22 22 22 22
42 42 41 40 39 37 35 34 32 32 30 28 27 27 26 26 25 26 27 28 28 27 27 28 26 24 24 23 23 23 22 22 22
42 42 41 41 39 38 36 34 33 32 31 29 28 27 27 27 26 26 26 27 27 27 27 27 26 25 24 23 23 23 22 22 22
42 41 41 41 40 38 36 35 34 32 31 30 29 28 28 27 27 26 26 26 27 27 27 26 26 24 23 23 23 22 22 22 22
41 42 40 40 41 38 37 35 34 33 32 31 30 29 28 28 27 27 26 26 26 26 26 25 25 24 23 23 23 22 22 21 22
41 41 38 40 40 38 37 36 34 34 33 32 31 29 29 29 28 27 27 26 26 26 26 25 24 23 22 22 22 22 21 21 21
40 41 39 39 39 37 35 35 34 34 34 33 32 30 30 29 28 28 27 27 26 26 25 24 24 23 22 22 22 22 22 21 21
39 39 40 38 37 37 36 35 34 34 34 33 33 32 30 30 29 28 27 27 26 25 25 23 23 22 22 21 22 22 22 22 22
39 39 39 39 38 37 37 36 34 34 33 34 33 32 31 31 29 28 27 27 26 25 24 23 22 22 22 21 21 23 23 22 22
37 39 39 39 40 38 37 38 36 35 34 34 33 32 31 30 29 28 27 26 26 24 22 22 22 22 21 21 21 22 22 22 22
39 39 39 38 40 40 37 37 37 35 34 33 32 32 31 31 29 27 26 25 23 23 22 22 21 22 21 21 21 21 21 21 21
40 40 40 39 40 39 36 36 36 34 33 33 32 31 31 30 27 25 23 23 22 22 22 22 22 22 21 21 22 21 21 20 20
36 39 39 39 38 36 35 35 35 33 33 32 32 31 29 28 25 24 22 21 21 21 22 22 22 22 21 21 21 20 20 20 20
35 36 37 37 35 34 34 34 33 31 30 30 30 28 28 26 23 23 22 22 22 22 21 21 21 21 21 21 20 20 20 20 19
35 36 36 36 33 32 32 31 30 30 29 29 28 27 26 24 22 22 22 21 21 21 21 21 21 21 20 21 21 20 20 19 19
33 33 32 32 31 30 29 29 29 28 28 27 26 25 23 22 22 22 22 21 21 22 22 22 22 22 21 21 21 19 20 19 19
30 29 28 29 29 29 29 28 27 27 26 25 23 23 22 21 21 22 22 21 21 21 21 22 22 22 22 22 21 19 20 19 18
25 25 26 26 27 26 26 26 26 26 24 23 22 22 22 21 21 21 20 19 18 19 20 20 21 21 21 21 21 21 20 20 19
22 26 28 27 27 26 26 25 24 25 24 23 22 22 21 21 21 21 21 20 19 17 16 18 19 20 20 20 21 20 20 19 19

GFSFLT1_925_temp_009.txt.gz
Temp
37 36 36 34 32 32 31 30 28 27 25 25 25 25 25 25 26 26 27 27 26 26 26 25 25 25 24 24 23 23 22 22 22
36 37 35 35 33 32 31 30 28 28 26 25 25 25 25 25 25 26 26 26 27 26 26 26 26 25 25 24 23 23 22 22 22
35 35 35 36 34 32 31 31 29 28 26 26 25 25 25 25 25 26 25 26 27 27 27 27 26 25 24 23 23 23 22 22 22
35 35 36 36 35 34 32 31 30 29 27 26 25 25 25 25 25 25 25 26 27 27 27 27 27 26 24 24 23 23 22 22 22
36 33 36 36 35 34 32 31 31 29 27 26 26 26 25 25 25 24 24 25 26 27 27 27 26 26 25 24 23 23 22 22 22
35 34 35 36 36 33 32 31 31 30 28 27 26 26 26 25 25 25 24 25 25 26 27 27 26 26 25 24 24 23 22 22 22
37 34 32 34 35 33 33 32 31 31 29 28 27 26 26 26 25 25 25 25 25 26 26 27 26 26 25 24 24 23 22 22 22
34 35 32 31 34 33 32 32 31 31 30 30 28 27 26 26 26 26 25 25 25 25 25 25 25 25 24 24 23 23 22 22 22
36 35 33 32 31 33 32 31 31 31 30 30 30 28 27 27 27 26 25 25 25 24 25 25 24 24 23 23 22 22 22 22 21
35 36 33 33 32 29 33 32 32 31 30 30 30 29 28 27 27 26 26 25 25 25 24 24 24 23 23 22 22 22 21 21 21
33 34 33 31 33 30 31 33 32 31 31 30 30 29 28 28 27 27 26 25 25 25 25 24 24 23 23 22 21 21 21 22 22
33 34 34 30 31 33 33 33 32 32 31 30 30 29 28 28 27 27 26 25 25 24 23 23 22 23 22 21 20 20 21 22 22
32 31 31 31 35 34 32 32 33 31 30 30 29 30 29 28 28 27 25 25 24 24 24 24 22 22 21 21 20 20 21 21 21
33 32 33 33 35 32 33 33 32 31 31 30 30 30 29 28 27 25 25 24 24 22 22 22 22 21 21 21 21 21 21 21 21
32 34 34 30 28 28 33 32 31 30 31 31 30 29 28 26 24 23 24 24 23 23 22 22 21 21 20 21 21 21 20 20 20
31 31 28 29 26 25 28 31 30 27 27 30 28 25 23 22 22 23 22 21 21 21 21 21 20 20 20 20 20 20 20 20 19
25 26 26 26 26 25 24 26 26 26 27 27 25 23 22 21 21 21 21 22 21 21 20 20 20 20 20 20 20 20 20 19 19
19 22 24 26 25 25 24 25 25 25 25 24 22 21 21 21 21 21 20 20 20 21 21 21 21 21 21 21 20 20 20 20 19
17 17 18 24 24 24 24 24 23 23 23 23 21 21 20 21 20 18 19 19 18 20 21 21 21 22 22 21 21 21 20 20 20
16 17 16 21 23 23 24 23 23 23 22 23 21 21 20 20 19 18 18 19 19 16 18 20 21 21 20 21 21 21 20 19 19

GFSFLT1_925_temp_015.txt.gz
Temp
31 31 31 30 30 29 29 28 26 25 24 23 22 22 23 23 24 24 24 25 25 25 25 25 25 24 24 24 23 23 23 23 22
32 31 31 31 30 30 29 29 27 25 24 24 23 23 23 23 23 23 23 25 25 25 25 25 25 25 25 24 23 23 23 23 22
31 31 31 31 31 30 30 29 28 26 25 25 24 24 23 23 24 24 24 25 25 25 25 25 25 25 25 24 23 23 23 23 22
31 30 31 32 32 31 31 30 28 26 25 25 25 24 24 24 23 23 23 24 25 26 25 25 25 25 24 24 24 23 23 23 22
30 32 32 32 32 31 31 29 28 26 26 25 25 25 24 24 24 23 23 24 25 25 25 25 25 24 24 24 24 23 23 23 22
29 29 31 31 32 30 30 29 29 27 26 25 25 25 24 24 23 23 23 24 24 24 25 25 25 25 24 24 24 23 23 23 23
27 28 30 30 28 29 29 29 29 27 26 26 25 25 24 24 23 23 23 24 24 23 24 24 24 24 24 25 24 24 23 23 23
28 28 29 30 30 30 29 29 29 27 26 26 26 25 24 24 24 23 23 23 23 23 23 23 24 24 24 24 24 24 24 23 23
29 29 29 29 33 32 30 29 28 28 26 26 26 25 25 24 24 23 23 23 23 23 23 23 23 23 24 24 23 24 24 24 21
28 29 28 29 28 30 30 29 29 28 27 26 25 25 25 25 24 24 23 23 22 22 22 22 23 23 23 23 24 25 24 22 22
27 28 27 26 29 30 30 30 29 29 28 26 25 25 25 25 24 24 23 22 22 22 22 22 22 22 23 24 24 24 24 22 21
27 28 27 27 28 30 31 30 29 29 28 27 26 25 25 25 24 24 23 23 22 22 22 21 21 22 23 24 23 23 24 23 21
27 27 25 26 27 29 30 30 30 28 28 27 26 26 26 25 25 24 24 23 23 23 23 22 21 22 23 23 22 23 22 23 19
25 25 25 26 27 24 28 30 30 28 28 27 27 27 26 26 25 24 24 23 23 22 22 22 21 21 21 22 22 21 22 20 19
19 19 20 21 21 21 22 27 28 28 27 28 28 27 27 26 25 24 24 23 22 22 22 22 22 21 20 20 21 22 21 20 21
18 17 18 18 18 18 20 22 23 25 28 28 28 27 27 26 25 24 23 22 22 22 22 22 21 20 19 19 20 21 21 20 20
17 17 18 18 19 18 17 19 22 22 23 25 28 27 27 26 25 24 23 22 22 22 22 21 20 19 19 18 18 20 19 20 20
16 16 16 17 16 16 18 20 21 22 24 22 24 26 26 24 23 23 22 22 22 22 21 20 19 19 18 18 18 19 21 21 20
15 16 16 16 17 17 18 19 20 21 23 25 21 23 22 22 22 18 16 17 17 19 19 19 21 20 20 21 20 21 21 20 20
15 16 16 17 18 19 19 19 20 21 19 20 23 20 21 20 17 17 18 19 18 16 18 19 19 20 21 21 21 21 20 19 19

GFSFLT1_925_temp_021.txt.gz
Temp
33 32 31 31 31 29 28 27 26 25 25 23 23 22 22 22 22 23 23 23 24 24 24 24 23 24 24 24 24 24 23 22 22
34 33 32 31 31 30 28 28 27 26 25 24 23 23 23 22 22 22 23 24 23 24 24 24 23 24 24 24 24 24 23 22 22
34 34 33 33 32 31 30 28 28 26 25 25 24 23 23 23 22 22 23 23 23 24 24 24 23 23 23 24 24 24 23 22 22
35 34 34 34 33 31 30 29 28 27 26 25 24 23 23 23 23 22 22 23 23 23 24 24 23 24 24 23 23 24 23 23 21
34 34 33 33 33 32 31 30 29 28 27 26 25 24 24 23 23 23 23 23 23 23 23 24 24 24 24 23 22 23 23 23 22
32 32 31 32 33 33 32 31 30 29 28 27 26 25 24 24 23 23 23 23 23 23 23 23 23 23 23 23 22 23 23 23 22
33 32 32 31 31 31 32 31 30 29 29 28 27 26 25 24 23 23 23 23 23 23 23 22 23 23 23 23 22 22 24 23 22
32 32 32 31 31 29 29 30 29 28 29 28 27 26 25 25 24 24 23 23 23 23 22 22 23 23 23 23 23 23 22 22 22
33 32 32 32 32 30 29 29 28 28 28 28 27 26 25 25 24 24 23 23 23 22 22 22 22 22 23 23 23 23 24 25 22
33 34 34 33 32 31 30 29 28 28 27 27 26 26 25 25 24 23 23 23 22 22 22 22 22 22 22 23 23 23 25 25 23
33 33 33 32 33 32 30 30 31 29 28 26 25 25 25 25 24 24 23 23 23 23 23 22 22 22 22 23 23 23 26 25 24
31 32 32 31 31 31 29 29 29 28 28 26 26 25 25 25 24 24 23 23 23 23 23 23 22 22 22 22 23 23 24 25 22
32 31 31 30 29 29 28 28 29 28 28 27 26 26 25 25 24 24 24 23 23 23 23 23 23 22 22 22 23 22 23 23 22
27 27 28 28 27 28 27 26 28 28 28 27 27 26 26 25 24 24 24 23 23 23 23 23 23 23 22 22 22 23 22 23 21
26 26 25 26 26 25 25 25 26 27 26 26 26 26 25 24 24 24 24 23 23 23 23 23 23 22 22 22 22 21 22 21 22
24 24 24 24 24 23 23 24 25 25 24 25 25 25 25 25 24 24 24 23 23 23 23 23 23 22 22 21 21 21 20 21 22
24 24 23 23 24 24 23 22 22 22 22 23 24 25 25 25 24 24 24 24 24 24 24 23 24 23 22 22 21 20 20 20 19
21 22 21 21 22 22 21 21 20 20 20 21 23 23 24 24 25 24 25 24 25 24 25 24 24 24 23 22 19 18 19 19 17
18 19 19 20 20 20 19 19 19 19 18 19 20 21 23 24 25 26 25 26 24 24 25 24 24 24 22 21 20 19 19 17 18
17 18 18 18 18 18 19 20 19 18 18 19 19 20 19 21 21 23 24 24 23 21 20 23 23 23 22 22 18 19 18 19 19

GFSFLT1_925_temp_024.txt.gz
Temp
39 37 36 36 35 33 32 31 29 28 27 25 25 25 24 24 24 25 25 26 27 27 28 27 27 25 24 24 24 24 24 23 23
40 38 37 36 36 34 32 31 30 29 28 26 26 25 25 24 24 24 26 26 26 27 27 28 26 25 24 24 24 24 24 24 23
40 39 37 37 36 36 34 32 31 29 28 27 26 26 25 25 25 24 25 26 25 26 27 26 27 25 25 25 24 24 24 24 24
40 39 39 38 38 36 35 34 32 30 29 28 27 27 26 26 26 25 25 25 25 25 26 26 25 25 25 25 25 24 24 24 25
40 40 40 39 39 38 36 34 33 32 31 29 28 28 26 26 26 26 26 25 25 25 25 25 25 25 25 25 25 25 24 24 25
38 38 37 38 39 38 37 35 34 33 32 31 30 28 28 27 26 26 26 25 25 25 25 25 26 25 25 25 25 25 24 24 24
37 37 37 37 37 38 37 36 34 33 33 32 31 30 29 28 27 26 26 26 25 25 25 24 25 25 25 25 25 25 25 24 24
36 37 37 36 36 36 35 35 34 32 32 32 32 31 30 28 27 26 26 26 25 25 25 24 25 25 25 25 26 26 25 25 25
35 36 37 37 37 36 35 34 33 33 32 32 31 31 30 29 27 26 26 26 25 25 25 25 24 25 25 25 26 27 26 25 25
35 36 36 37 38 37 37 36 34 33 32 31 31 29 29 28 27 26 26 26 25 25 25 25 24 24 25 25 25 26 26 25 25
36 37 37 37 38 39 38 37 37 35 32 30 30 29 28 28 27 26 26 25 25 25 25 25 25 24 25 25 25 25 26 25 24
36 36 37 37 37 37 36 36 36 34 32 31 29 29 28 27 27 26 26 25 25 25 25 25 25 24 24 24 25 25 25 25 23
37 37 37 36 36 35 34 33 34 33 33 31 29 29 28 27 27 27 26 26 25 25 25 25 25 25 25 24 25 25 24 24 25
32 34 34 34 33 33 33 32 32 33 32 32 30 29 29 28 27 26 26 26 25 25 25 26 25 26 25 25 24 25 24 24 23
30 32 33 32 31 32 31 30 30 31 31 31 30 29 29 28 27 27 27 26 25 25 25 25 25 25 25 26 25 24 25 24 23
30 31 31 31 32 30 29 28 30 30 29 29 29 28 28 28 27 26 27 26 25 26 25 26 26 27 26 27 27 25 24 24 23
28 28 28 28 28 28 27 27 28 27 26 27 27 27 27 27 27 26 26 27 27 27 28 26 27 28 28 28 27 27 26 22 22
26 26 26 26 27 26 25 24 24 24 24 25 27 27 27 27 27 27 27 26 28 28 28 29 28 28 28 27 27 26 23 20 18
22 22 23 22 22 22 23 23 23 22 22 23 24 26 27 29 29 30 29 29 28 27 27 26 27 27 27 28 26 26 23 20 20
19 20 20 21 20 22 22 19 19 19 22 22 23 24 24 26 25 28 28 28 29 29 26 24 25 25 25 25 25 24 23 20 20

GFSFLT1_925_temp_027.txt.gz
Temp
41 40 40 39 37 36 34 33 32 31 29 27 26 25 25 25 25 27 27 27 29 28 29 29 29 26 26 25 25 25 25 25 25
41 41 40 39 38 36 35 33 32 31 30 27 26 26 26 25 25 26 27 27 27 28 28 30 29 27 26 25 25 25 25 25 25
41 42 40 40 39 37 36 34 33 31 30 28 27 27 26 26 25 25 26 27 27 27 28 28 29 28 27 25 25 25 25 26 26
41 42 41 40 39 38 36 35 34 32 31 30 28 27 27 27 26 26 25 26 27 27 27 28 27 27 26 26 25 25 25 25 27
41 42 41 40 40 39 38 36 35 34 32 31 29 28 28 27 27 27 26 26 26 27 27 27 27 27 26 26 26 26 25 25 26
41 41 41 41 41 40 40 38 37 35 34 33 31 30 29 28 27 27 27 27 26 26 26 26 27 26 26 26 26 26 25 25 25
40 40 40 41 41 41 40 39 37 36 36 34 33 32 30 30 28 28 28 28 27 26 26 26 26 27 26 26 26 26 26 25 25
38 38 38 39 39 39 39 39 37 36 36 36 35 33 32 31 29 28 28 28 27 27 27 26 26 26 26 26 26 26 26 26 25
37 37 38 39 39 38 38 38 37 36 35 35 35 34 33 32 30 29 28 28 27 27 26 26 26 26 26 26 26 27 27 26 26
37 37 38 38 38 39 38 37 37 36 35 34 34 33 33 32 31 29 28 28 27 27 26 26 26 26 26 26 26 27 28 27 26
36 37 37 38 39 39 39 39 40 37 36 34 33 33 32 32 31 30 28 27 27 27 26 26 26 26 26 26 26 27 27 28 27
36 37 38 38 39 39 39 39 39 38 37 35 32 32 32 31 30 30 28 27 27 27 26 26 26 26 26 26 26 26 26 27 26
35 37 37 38 38 38 38 38 37 38 37 36 33 32 31 30 30 29 28 27 27 27 27 26 26 26 26 26 26 26 26 26 26
32 32 33 34 35 35 35 35 36 36 36 36 34 32 31 30 29 29 28 27 27 27 26 27 26 27 27 26 26 26 26 26 25
31 32 33 34 34 34 33 34 34 34 34 34 34 33 31 30 29 28 28 27 27 27 26 26 27 27 26 27 26 26 25 25 25
30 32 32 33 33 34 33 32 31 32 32 32 32 31 30 30 29 28 28 28 27 27 26 27 28 28 28 28 28 27 26 25 25
31 31 30 31 31 32 30 29 30 31 29 30 30 30 29 29 29 28 28 28 28 28 29 29 28 29 29 29 30 29 29 26 25
29 29 28 29 29 29 27 26 26 26 26 27 28 29 29 28 29 28 28 28 29 30 29 30 31 30 30 31 31 31 30 30 27
25 24 23 23 25 26 26 25 24 24 24 25 27 28 29 30 31 30 29 30 29 28 28 28 28 28 27 27 27 28 27 29 29
21 21 22 24 25 22 21 21 22 24 24 24 25 26 27 29 28 31 31 31 31 32 27 27 27 26 25 24 24 24 24 24 24

GFSFLT1_925_temp_030.txt.gz
Temp
41 41 40 38 35 34 33 33 31 30 27 26 25 25 25 25 25 26 27 27 28 28 28 28 28 27 26 25 25 25 25 25 25
41 41 41 38 37 35 33 33 31 30 28 26 25 25 25 25 25 26 26 27 28 28 29 29 29 28 26 26 25 25 25 25 25
42 41 41 39 38 36 34 33 32 31 29 27 26 26 25 25 25 25 26 27 27 28 28 29 29 28 26 25 25 25 25 25 25
42 41 40 40 39 37 35 34 33 31 30 28 27 26 26 26 25 25 25 26 27 27 28 28 29 27 26 26 25 25 25 25 25
42 41 40 40 39 38 37 35 34 32 31 30 28 27 26 26 26 26 25 25 26 27 27 28 27 28 27 26 25 25 25 25 25
40 40 41 40 40 39 38 36 35 34 32 31 30 28 27 27 26 26 26 25 26 27 26 27 27 27 27 26 26 25 25 25 25
40 39 39 40 40 38 38 37 35 34 33 33 31 30 28 28 27 27 26 26 26 26 27 26 27 26 27 26 26 26 25 25 25
40 40 40 39 40 37 36 36 35 35 35 34 33 32 30 29 28 28 27 27 27 26 26 26 26 26 26 26 26 26 25 25 25
37 37 39 39 39 38 38 37 36 35 35 35 34 33 32 30 29 28 28 27 27 27 26 26 26 26 26 26 26 26 26 26 26
37 37 38 38 38 38 37 38 37 35 35 35 35 33 32 32 30 29 28 28 27 27 27 26 26 26 26 26 26 26 26 26 26
37 37 37 37 38 38 38 38 38 37 35 34 34 34 33 32 31 29 29 28 28 27 27 27 26 26 26 26 26 26 27 27 26
36 37 36 37 38 38 38 38 38 36 35 34 33 33 32 32 31 30 29 28 27 27 27 27 26 26 26 26 26 26 26 27 26
32 33 33 33 34 35 38 38 39 38 35 34 32 32 32 32 31 30 30 29 28 27 27 27 26 26 26 26 26 26 26 26 26
31 32 33 33 33 33 34 33 34 34 36 35 34 32 32 31 31 30 30 29 28 27 27 27 27 27 26 26 26 26 26 26 26
29 31 32 33 33 33 34 33 33 33 33 34 34 35 32 31 31 29 30 29 28 27 27 27 26 26 26 27 26 26 26 26 26
29 31 32 32 32 33 33 33 31 31 31 32 33 33 32 31 30 29 29 28 28 27 27 27 26 27 27 27 27 27 27 26 26
27 29 29 29 30 31 29 29 29 30 30 31 31 31 31 30 29 28 28 28 27 27 27 27 27 27 28 28 28 28 28 28 27
25 26 25 26 28 29 28 26 26 26 26 27 29 30 29 29 29 29 28 28 28 28 28 28 29 28 28 29 29 25 24 25 25
23 24 24 25 26 27 25 24 23 25 25 26 28 29 29 29 29 29 28 28 28 28 28 27 27 26 25 24 22 23 24 25 25
22 22 23 24 24 22 22 23 24 24 25 25 26 27 28 28 30 30 29 29 29 29 23 25 25 24 23 22 21 22 23 24 24

GFSFLT1_925_temp_033.txt.gz
Temp
30 28 30 32 31 31 31 30 28 26 25 25 24 24 25 26 25 26 26 27 27 27 27 27 27 26 25 25 25 25 24 24 24
34 33 34 33 32 31 31 30 29 27 25 25 24 24 24 25 25 25 26 27 27 27 27 27 27 27 26 26 25 25 25 24 25
36 34 33 33 32 32 31 31 29 28 25 25 24 24 24 24 25 25 25 26 27 26 28 28 27 27 27 26 26 25 25 24 24
38 36 35 33 33 32 31 31 30 28 27 25 24 24 24 24 24 24 24 25 26 27 27 28 28 28 27 26 25 25 25 25 25
35 37 35 34 33 33 31 31 30 29 28 26 25 24 24 24 24 24 24 24 25 27 27 27 28 27 27 26 26 26 25 25 25
33 34 35 35 34 33 32 32 31 30 29 27 26 25 25 24 24 24 23 24 25 26 27 27 28 27 26 27 26 25 25 25 25
33 32 35 35 35 34 33 32 32 31 30 29 27 26 25 25 24 24 24 24 24 24 25 26 26 27 26 26 26 26 25 25 25
33 32 34 35 35 34 33 32 32 31 30 30 29 27 26 26 25 25 25 24 24 24 25 25 26 26 27 26 26 25 25 25 25
31 31 31 32 34 34 34 33 32 31 31 31 30 29 27 27 26 26 25 25 25 24 24 24 25 25 25 26 25 25 25 25 24
31 31 31 31 31 30 30 33 33 32 32 31 31 30 29 28 27 26 26 25 25 25 25 24 24 25 25 25 25 25 25 25 24
31 31 30 30 30 31 35 34 32 33 32 31 31 30 29 29 27 26 26 26 25 25 25 25 25 24 25 25 25 25 25 25 25
27 27 27 27 29 30 33 35 36 33 32 31 30 31 30 29 28 27 27 26 26 26 26 25 25 25 25 25 25 25 25 25 25
27 26 27 28 31 32 32 32 34 33 32 32 31 31 30 30 30 29 27 27 26 26 26 26 26 26 25 25 25 25 25 25 25
25 26 27 31 31 30 32 33 33 31 31 30 33 33 33 32 32 30 29 28 27 26 26 26 26 25 25 25 25 25 25 25 25
24 25 27 28 27 28 31 33 33 30 30 32 33 32 31 32 32 31 30 29 27 26 26 26 26 25 25 25 25 25 25 25 25
23 24 24 25 25 26 27 27 28 28 28 30 31 32 32 31 31 31 30 29 28 26 26 26 25 25 25 25 26 26 26 26 26
22 22 23 23 24 24 25 26 26 26 26 28 29 31 30 30 30 29 29 29 28 27 26 25 25 25 25 26 26 26 26 25 25
20 20 21 22 22 23 23 24 24 25 25 26 27 29 29 29 29 28 28 28 27 27 27 27 26 26 26 26 24 23 23 24 24
19 19 21 20 21 22 23 24 24 24 24 25 26 27 28 28 28 28 28 28 24 26 25 25 26 25 25 22 21 21 22 23 24
21 21 21 21 21 21 22 23 23 24 24 24 25 26 27 28 28 28 27 27 22 17 20 21 22 21 21 20 20 19 20 22 22

GFSFLT1_925_temp_036.txt.gz
Temp
30 30 29 30 30 30 29 27 26 26 25 24 24 24 24 24 25 25 25 25 26 26 26 26 26 25 25 25 25 24 24 24 24
30 30 29 31 30 30 30 27 26 26 25 25 24 24 24 23 24 25 25 26 26 26 26 26 27 26 26 25 25 25 24 24 24
30 30 30 31 30 30 30 28 27 26 25 25 24 24 24 24 24 25 25 25 26 26 26 26 26 26 26 26 25 25 25 24 24
31 30 31 30 31 31 30 29 28 26 25 25 24 24 24 24 24 24 24 25 25 26 26 26 26 27 26 26 25 25 25 25 24
31 31 31 31 31 31 30 30 28 27 25 25 24 24 24 23 23 23 23 24 25 25 26 26 26 26 27 26 26 25 25 25 24
32 32 32 32 32 31 30 30 29 27 26 25 25 24 24 23 23 23 23 24 23 24 25 26 26 26 26 26 26 26 25 25 25
31 34 33 32 31 31 30 30 29 28 27 25 25 24 24 23 23 23 23 24 23 23 24 25 26 26 26 26 26 26 26 26 25
31 33 33 33 31 31 30 30 30 28 28 26 25 24 24 23 24 23 23 23 23 24 23 24 25 25 26 26 26 25 25 25 25
30 32 33 33 32 31 30 30 30 29 28 27 26 25 24 24 24 23 23 23 23 23 23 23 24 25 25 25 25 25 26 25 25
27 30 33 32 32 32 31 31 30 29 29 28 26 25 25 25 24 24 23 24 23 23 23 23 23 23 24 24 24 24 25 25 24
27 28 27 27 28 29 31 31 31 30 29 29 28 27 26 25 25 24 24 24 24 23 23 23 23 23 23 23 24 24 24 25 24
24 24 24 24 26 28 31 32 31 31 30 29 28 28 28 26 26 25 24 24 24 24 24 24 24 23 23 23 23 24 24 24 24
23 23 24 24 28 28 30 30 31 31 30 29 29 28 28 28 27 26 25 25 25 24 24 24 24 24 24 24 23 24 24 24 24
22 23 23 24 25 24 28 30 30 29 29 29 30 29 29 28 28 27 26 26 25 25 25 25 25 24 24 24 24 24 24 24 24
21 21 22 23 23 23 24 27 29 26 26 28 30 29 29 28 28 27 27 26 26 25 25 25 25 25 24 24 24 24 25 25 24
20 20 21 21 22 22 23 24 25 24 24 27 29 29 29 30 29 28 28 27 26 25 25 25 25 24 24 24 24 25 25 25 25
19 19 19 20 21 21 21 23 24 24 25 26 26 27 29 29 29 28 28 27 26 25 24 24 24 24 23 24 24 25 25 25 25
18 18 18 19 19 20 21 23 24 24 24 24 25 26 27 28 28 27 26 25 25 25 26 26 24 24 24 23 23 24 24 24 24
17 17 18 18 19 20 21 23 23 24 24 24 24 24 25 26 26 26 26 24 21 22 24 25 25 25 25 23 23 22 23 23 23
17 17 17 17 18 20 21 21 22 22 24 23 23 23 24 25 26 26 24 22 20 18 19 21 21 21 21 22 21 21 22 22 22

GFSFLT1_925_temp_042.txt.gz
Temp
27 27 26 26 26 26 25 25 25 23 23 23 23 23 23 24 24 24 24 25 25 25 25 25 25 25 25 24 24 24 23 23 24
28 27 27 27 27 27 26 26 25 24 23 23 23 23 23 23 23 23 24 25 25 25 25 25 25 25 25 25 24 24 24 23 24
28 28 27 27 27 27 27 26 25 24 24 23 23 23 23 23 23 24 24 25 25 25 25 25 25 25 25 25 25 24 24 24 24
28 28 28 27 28 28 27 27 26 24 24 23 23 22 22 22 23 23 24 24 25 25 25 25 25 25 25 25 25 25 24 24 24
28 28 29 28 29 28 28 27 26 25 24 23 23 23 23 23 23 23 23 23 24 25 25 25 25 25 25 25 25 25 24 24 24
27 28 28 29 29 28 29 27 26 25 24 23 23 23 22 22 22 22 22 23 24 24 25 25 25 25 25 25 25 25 25 25 25
25 25 26 27 28 28 29 28 26 25 24 24 24 23 23 22 22 22 22 23 23 24 25 25 25 25 25 25 25 25 25 25 24
26 25 26 26 28 27 27 28 27 25 25 24 24 23 23 23 23 22 23 23 23 24 24 25 25 25 25 25 25 25 25 25 25
21 24 27 27 28 28 27 28 27 25 25 24 24 24 23 23 23 22 23 23 23 23 23 24 24 24 24 24 25 25 25 25 25
20 21 25 28 28 28 28 28 28 26 25 24 24 24 23 23 22 22 22 22 22 22 22 23 22 23 23 23 24 25 25 25 25
20 20 24 28 29 29 29 29 28 27 25 24 24 23 23 23 22 22 22 21 22 22 22 22 22 22 22 23 23 24 25 25 24
21 21 20 25 29 29 29 29 28 26 25 24 24 23 23 23 22 22 22 21 21 21 21 21 22 22 22 22 22 23 24 23 23
20 21 20 24 27 29 28 28 27 25 25 24 23 24 23 23 22 22 22 22 22 22 22 21 21 21 22 22 23 23 24 23 22
20 21 21 21 25 25 26 28 27 25 25 25 24 24 24 24 23 23 23 22 22 22 22 22 21 21 22 22 23 23 23 23 22
19 19 20 21 20 20 23 26 26 25 25 25 26 25 24 24 23 23 23 23 23 22 22 22 22 21 22 22 23 23 24 24 23
18 18 18 19 20 20 20 24 25 24 23 25 27 26 25 25 24 24 24 23 23 22 22 22 22 22 22 22 22 23 24 24 24
16 17 17 17 18 19 19 21 22 23 23 24 26 26 26 26 25 24 24 24 24 23 23 22 23 22 22 22 23 23 24 24 23
15 16 16 16 17 18 18 20 21 22 23 24 24 24 25 25 24 24 24 24 23 23 23 23 23 23 23 22 22 23 23 23 23
14 14 15 16 17 17 18 19 20 21 22 23 23 23 23 23 23 22 22 22 20 21 22 23 23 23 24 24 24 23 23 23 23
15 15 15 15 16 17 18 19 19 20 21 22 22 22 22 22 22 20 19 18 18 16 17 21 22 23 23 22 23 22 21 21 21

GFSFLT1_925_temp_045.txt.gz
Temp
30 29 29 28 28 27 26 25 25 24 23 23 22 22 22 23 23 23 24 23 24 24 24 24 24 25 25 25 24 24 24 22 22
30 29 29 29 28 27 26 26 25 24 23 23 22 23 22 22 23 23 23 24 24 23 23 24 23 25 25 25 25 24 24 23 22
31 31 30 30 29 28 27 26 26 25 24 23 23 23 22 22 22 23 23 23 23 24 24 25 24 25 25 25 25 24 23 23 22
33 32 31 30 30 29 28 27 26 25 25 24 23 23 23 23 22 23 22 22 23 23 25 26 25 25 25 25 25 24 23 23 23
33 32 32 31 31 29 29 28 27 26 26 25 24 24 23 23 23 23 22 22 22 22 24 26 25 25 25 25 25 24 23 23 23
32 31 32 31 31 30 30 29 28 27 26 26 25 24 23 23 23 23 23 23 23 22 24 26 25 24 24 24 25 24 24 24 23
31 30 30 31 30 30 29 29 28 27 27 26 26 25 24 24 23 23 23 23 22 22 24 25 25 24 24 24 24 24 24 23 23
30 30 30 30 30 29 29 29 27 27 27 26 26 25 24 24 23 23 23 23 22 22 23 24 25 24 23 23 24 24 23 23 23
28 28 29 30 30 30 29 29 27 26 26 26 25 24 24 24 23 23 23 22 22 22 22 23 23 23 23 23 24 25 25 25 24
24 25 26 26 29 30 30 29 28 26 26 25 25 24 24 24 23 23 22 22 22 22 22 22 22 22 23 23 23 25 25 25 24
22 23 24 25 26 29 29 29 29 27 26 25 24 24 24 24 23 23 22 22 22 22 23 22 22 22 22 23 23 24 25 25 25
20 21 22 24 25 28 30 29 29 27 26 25 25 24 24 24 23 23 23 22 22 22 22 22 22 23 22 22 23 24 25 25 22
20 21 24 25 26 30 29 29 28 27 26 25 25 25 24 24 23 23 23 23 22 22 22 23 23 23 23 23 23 23 25 24 22
19 20 23 25 29 29 28 28 28 26 26 26 26 25 25 24 23 23 23 23 23 23 23 23 22 23 23 22 22 22 23 24 22
18 19 21 24 26 28 27 27 27 26 26 26 25 25 24 23 23 24 24 23 23 23 23 23 23 23 23 24 23 22 22 24 23
17 18 20 22 24 23 25 26 26 26 25 24 24 24 24 24 23 23 24 23 23 23 23 24 24 24 25 25 25 24 23 23 24
17 17 18 20 22 22 22 22 23 23 23 24 24 24 24 24 24 23 24 24 24 24 25 25 25 25 25 26 25 24 24 23 22
16 16 17 18 19 21 21 21 21 21 21 23 24 24 24 24 24 23 24 25 25 25 25 26 26 26 26 26 25 25 25 24 23
17 17 17 17 18 19 20 20 20 19 19 21 23 25 25 25 26 24 25 21 19 22 23 23 24 24 25 24 24 24 24 23 22
17 17 17 16 17 17 18 19 18 18 19 19 21 22 22 22 21 21 23 22 22 18 18 20 23 23 23 23 24 23 23 23 23

GFSFLT1_925_temp_048.txt.gz
Temp
36 35 34 33 32 30 29 28 27 27 26 24 24 24 24 23 24 25 25 25 27 27 27 27 27 25 25 24 24 24 24 24 24
37 35 35 33 33 31 30 29 28 27 26 25 25 25 24 24 24 24 26 26 26 26 26 27 26 25 25 25 25 24 24 25 24
37 36 35 34 33 32 30 29 28 27 26 25 25 25 25 25 25 24 25 25 25 26 26 25 26 25 25 25 25 24 24 25 25
37 36 35 35 34 33 31 30 29 28 27 26 26 26 25 25 25 25 25 25 25 25 25 25 25 25 25 25 25 25 24 25 26
38 38 36 36 35 33 32 31 30 29 28 27 26 26 25 25 26 25 26 25 25 25 24 25 25 25 25 25 25 25 25 24 26
37 37 37 36 36 35 33 32 31 31 29 29 28 27 26 26 26 26 26 25 25 25 24 24 25 25 25 25 25 25 25 25 25
37 37 36 36 36 36 34 33 31 31 31 30 30 28 28 27 26 26 26 25 25 25 24 24 25 25 25 25 25 26 26 25 25
34 34 35 35 35 35 34 32 32 30 31 30 31 29 29 28 26 26 26 25 25 25 25 25 25 25 25 25 25 26 26 26 26
34 33 34 34 34 34 34 32 31 30 30 30 30 30 29 28 26 26 25 25 25 24 25 25 25 25 25 25 26 27 26 26 26
32 31 31 32 33 34 34 32 31 30 29 29 29 29 28 28 26 25 25 25 25 24 24 25 25 25 25 25 25 26 26 26 26
27 28 28 29 31 32 32 33 32 31 30 29 28 28 27 27 26 25 25 25 25 24 25 25 25 25 25 25 25 25 25 25 25
24 25 25 26 27 29 30 31 33 31 30 28 28 27 27 26 26 25 25 25 25 25 25 25 25 25 25 24 25 26 25 25 24
22 23 24 24 26 28 29 29 32 32 30 29 28 27 27 26 26 25 25 25 25 25 25 25 26 26 25 25 25 25 24 24 25
20 20 21 24 27 28 29 29 32 32 30 29 28 27 27 26 26 25 25 25 25 25 25 26 25 26 26 25 25 25 24 24 23
17 18 22 28 30 30 31 31 31 31 29 29 28 27 27 26 26 26 26 25 25 25 25 25 25 25 26 26 25 25 24 24 23
17 17 19 24 29 30 30 30 30 29 28 27 27 27 27 26 26 26 27 25 25 25 25 27 26 27 27 28 28 26 25 24 23
16 16 17 19 22 24 27 28 28 28 27 27 27 27 27 26 26 26 26 26 26 27 27 27 29 29 29 29 29 29 28 25 23
16 15 15 16 18 21 21 22 22 23 26 26 26 27 27 27 27 25 26 27 26 28 28 29 29 30 30 30 30 30 29 28 27
16 15 15 16 16 18 20 20 21 22 23 24 26 26 27 28 28 27 27 27 24 23 21 24 27 27 29 28 28 27 27 26 26
16 16 16 16 16 17 18 18 18 19 22 23 24 26 27 28 28 27 24 23 22 23 23 22 24 25 26 25 26 25 25 24 23